This is the latest recevied weather packets stored in our database for station/object DF7ER-12. If no packets are shown the sender has not sent any weather packets the latest 10 day(s).
| Time | Temp. | Humidity | Pressure | Rain* | Wind** | Luminosity | Snow |
|---|---|---|---|---|---|---|---|
| 1777947031 | 16.67° C | 100% | 1000.6 hPa | - | - | - | - |
| 1777946731 | 17.22° C | 100% | 1000.6 hPa | - | - | - | - |
| 1777946432 | 16.11° C | 100% | 1000.6 hPa | - | - | - | - |
| 1777946131 | 16.67° C | 100% | 1000.6 hPa | - | - | - | - |
| 1777945831 | 17.22° C | 100% | 1000.6 hPa | - | - | - | - |
| 1777945531 | 17.78° C | 100% | 1000.6 hPa | - | - | - | - |
| 1777945231 | 17.78° C | 100% | 1000.6 hPa | - | - | - | - |
| 1777944931 | 17.22° C | 100% | 1000.6 hPa | - | - | - | - |
| 1777944631 | 18.33° C | 98% | 1000.6 hPa | - | - | - | - |
| 1777944331 | 17.78° C | 98% | 1000.7 hPa | - | - | - | - |
| 1777944031 | 17.78° C | 100% | 1000.7 hPa | - | - | - | - |
| 1777943731 | 17.78° C | 100% | 1000.7 hPa | - | - | - | - |
| 1777943431 | 18.33° C | 99% | 1000.8 hPa | - | - | - | - |
| 1777943131 | 18.33° C | 97% | 1000.8 hPa | - | - | - | - |
| 1777942831 | 18.33° C | 96% | 1000.8 hPa | - | - | - | - |
| 1777942531 | 18.33° C | 96% | 1000.9 hPa | - | - | - | - |
| 1777942231 | 18.89° C | 93% | 1000.9 hPa | - | - | - | - |
| 1777941931 | 18.89° C | 95% | 1001 hPa | - | - | - | - |
| 1777941632 | 18.89° C | 95% | 1001 hPa | - | - | - | - |
| 1777941331 | 18.89° C | 94% | 1001.1 hPa | - | - | - | - |
| 1777941031 | 18.89° C | 94% | 1001.1 hPa | - | - | - | - |
| 1777940731 | 18.89° C | 94% | 1001.1 hPa | - | - | - | - |
| 1777940431 | 18.33° C | 96% | 1001.2 hPa | - | - | - | - |
| 1777940131 | 18.89° C | 95% | 1001.2 hPa | - | - | - | - |
| 1777939831 | 18.33° C | 96% | 1001.3 hPa | - | - | - | - |
* Rain since midnight (hover to see other rain measurements)
** Current wind speed in m/s (hover to see current wind gust speed)